Chicago, IL (60634)

9:54 AM CST on February 20, 2017 (GMT -0600)
Dunning Coniac | | Change Station
Active Advisory: Small Craft Advisory

Elev 641 ft 41.95 °N, 87.81 °W | Updated 14 seconds ago

Overcast
Overcast
57.9 °F
Feels Like 57.9 °F
N
3.7
Wind Variable Wind from West

Today
High -- | Low -- °F
--% Chance of Precip.
Yesterday
High -- | Low -- °F
Precip. -- in
Pressure 30.12 in
Visibility 6.0 miles
Clouds Mostly Cloudy 21000 ft
Overcast 25000 ft
Dew Point 48 °F
Humidity 69%
Rainfall 0.00 in
Snow Depth Not available.
6:39 AM 5:30 PM
Waning Crescent, 33% visible
METAR KORD 201551Z 17011KT 6SM HZ BKN210 OVC250 14/08 A3011 RMK AO2 SLP198 T01390083
Pressure 30.12 in
Visibility 6.0 miles
Clouds Mostly Cloudy 21000 ft
Overcast 25000 ft
Dew Point 48 °F
Humidity 69%
Rainfall 0.00 in
Snow Depth Not available.
6:39 AM 5:30 PM
Waning Crescent, 33% visible
METAR KORD 201551Z 17011KT 6SM HZ BKN210 OVC250 14/08 A3011 RMK AO2 SLP198 T01390083

Get Your Daily Forecast Email!

Thanks for signing up!

Be on the lookout for a verification email in your inbox.

You'll start receiving the daily forecast at 8 AM.

×

10-Day Weather Forecast

Almanac

Astronomy

Feb. 20, 2017 Rise Set
Actual Time
Civil Twilight
Nautical Twilight
Astronomical Twilight
Moon
Length of Visible Light
Length of Day
Tomorrow will be .
, % of the Moon is Illuminated

Today's Extremes

State Highs State Lows

Community

WunderPhotos

Upload Photos

1,962,540 photos uploaded!

WunderBlog® & News

Nearby

Air Quality

  Air Quality AQ Index Pollutant
Not available.

Snow Depth

Station Depth Elevation

Earthquake Activity

City Distance Mag. Time & Date
Minimum magnitude displayed is 2.5.

Coastal Water Temperatures

Place Temperature

Stations

Nearby Weather Stations

Station Location Temp. Windchill Dew Point Humidity Wind Precip. Elev Updated Type
                   

Watches & Warnings

Small Craft Advisory
Issued: 9:31 AM CST Feb. 20, 2017 – National Weather Service

... Small Craft Advisory remains in effect until 3 am CST
Tuesday...

* winds... south 20 to 25 kt.

* Significant waves... to 5 ft for IL... to 3 ft for Indiana.

* Occasional waves... to 7 ft for IL.

Precautionary/preparedness actions...

A Small Craft Advisory means that wind speeds of 21 to 33 knots
are expected to produce hazardous wave conditions to small craft.
Inexperienced mariners... especially those operating smaller
vessels should avoid navigating in these conditions.



Bmd